[[{"header":{"parameterUnit":"m.s-1","parameterCategory":1,"la1":30.2991,"la2":30.254,"lo1":-89.0895,"lo2":-89.0444,"dy":0.0017,"dx":0.0017,"nx":28,"ny":28,"refTime":"2025-02-03T09:00:00:Z","depth":0,"parameterNumber":2,"parameterNumberName":"U-component_of_WINDS"},"data":[0,0,0,0,0,0,0,0,0,0,0,0,0,0,0,0,0,0,0,0,0,0,0,0,0,0,0,0,0,0,0,0,0,0,0,0,0,0,0,0,0,0,0,0,0,0,0,0,0,0,0,0,0,0,0,0,0,0,-1.1719,-1.1718,0,-1.1658,-1.1658,-1.1657,-1.161,-1.161,-1.1609,-1.1609,-1.1547,-1.1546,-1.1545,0,0,0,0,0,0,0,0,0,0,0,0,0,-1.1793,-1.1792,-1.1719,-1.1718,-1.1717,-1.1659,-1.1658,-1.1657,-1.161,-1.161,-1.1609,-1.1609,-1.1548,-1.1546,-1.1545,0,0,0,0,0,0,0,0,0,0,0,0,0,-1.175,-1.1791,-1.1719,-1.1687,-1.1683,-1.1659,-1.1658,-1.1657,-1.161,-1.161,-1.1609,-1.1608,-1.1548,-1.1546,-1.1545,-1.1547,0,0,-1.1539,-1.1538,0,0,0,0,0,0,0,0,-1.1752,-1.1747,-1.1692,-1.1689,-1.1685,-1.1641,-1.1661,-1.162,-1.1611,-1.1638,-1.1609,-1.1608,-1.1579,-1.1575,-1.1565,-1.1544,-1.1541,-1.1539,-1.1538,-1.1537,-1.1536,0,0,0,0,0,0,0,-1.1755,-1.1749,-1.1695,-1.1692,-1.1687,-1.1675,-1.1669,-1.1653,-1.1613,-1.1636,-1.1632,-1.1626,-1.1577,-1.1567,-1.1563,-1.154,-1.1539,-1.1537,-1.1536,-1.1535,-1.1517,-1.1517,0,0,0,0,0,0,-1.1763,-1.1752,-1.1697,-1.1693,-1.1718,-1.1675,-1.1667,-1.1656,-1.1613,-1.1606,-1.1626,-1.1624,-1.157,-1.1565,-1.1561,-1.1559,-1.1537,-1.1535,-1.1534,-1.1516,-1.1517,-1.1517,0,0,0,0,0,0,-1.1765,-1.1759,-1.1699,-1.1722,-1.1713,-1.1674,-1.1662,-1.1655,-1.1645,-1.1606,-1.1599,-1.1623,-1.1569,-1.1563,-1.155,-1.1556,-1.1534,-1.1533,-1.1515,-1.1516,-1.1517,-1.1557,0,0,0,0,0,0,-1.1767,-1.176,-1.176,-1.1722,-1.1712,-1.169,-1.1663,-1.1654,-1.1642,-1.1638,-1.1601,-1.1594,-1.1568,-1.1553,-1.1548,-1.1553,-1.1531,-1.1514,-1.1516,-1.1517,-1.1555,-1.1559,-1.1562,0,0,0,0,0,-1.177,-1.1774,-1.176,-1.1754,-1.1712,-1.169,-1.1685,-1.1655,-1.1643,-1.1642,-1.1617,-1.1596,-1.1557,-1.1552,-1.1546,-1.1551,-1.1514,-1.1515,-1.1517,-1.1553,-1.1558,-1.1562,0,0,0,0,0,0,-1.1814,-1.1768,-1.1753,-1.1745,-1.1722,-1.1683,-1.1682,-1.1661,-1.1642,-1.1639,-1.1602,-1.1594,-1.1585,-1.1567,-1.1563,-1.155,-1.1532,-1.1533,-1.1562,-1.1567,-1.157,-1.1574,-1.153,0,0,0,0,0,-1.1823,-1.181,-1.177,-1.1767,-1.1756,-1.1721,-1.1711,-1.1689,-1.1664,-1.1654,-1.1628,-1.1605,-1.1587,-1.1576,-1.1558,-1.1552,-1.1543,-1.1552,-1.1556,-1.156,-1.156,-1.1554,-1.1557,-1.1522,-1.1522,-1.1522,0,0,-1.1841,-1.1814,-1.1808,-1.1775,-1.1755,-1.1741,-1.1713,-1.17,-1.1689,-1.1652,-1.1638,-1.1618,-1.1589,-1.158,-1.1574,-1.1564,-1.1568,-1.1561,-1.1564,-1.1563,-1.1556,-1.1559,-1.1562,-1.1523,-1.1522,-1.1522,0,0,-1.1866,-1.1846,-1.1839,-1.182,-1.1789,-1.1766,-1.1765,-1.1728,-1.1714,-1.1699,-1.167,-1.1657,-1.1628,-1.1608,-1.1594,-1.1611,-1.159,-1.1606,-1.1626,-1.1621,-1.1624,-1.1626,-1.1631,-1.1633,-1.1607,-1.1607,-1.1607,0,-1.1893,-1.1871,-1.1839,-1.1827,-1.1813,-1.1779,-1.1772,-1.1755,-1.172,-1.1711,-1.17,-1.1662,-1.164,-1.1625,-1.1629,-1.1619,-1.1616,-1.161,-1.1626,-1.1628,-1.163,-1.1634,-1.1636,-1.1609,-1.1609,-1.1609,-1.1609,0,-1.1904,-1.1889,-1.1888,-1.1854,-1.184,-1.1831,-1.1798,-1.1787,-1.1768,-1.1745,-1.173,-1.1703,-1.1677,-1.1673,-1.1653,-1.1654,-1.1649,-1.1633,-1.1614,-1.1636,-1.1639,-1.164,-1.1612,-1.1611,-1.1611,-1.161,0,0,-1.1954,-1.1903,-1.1903,-1.1887,-1.1851,-1.1839,-1.1828,-1.1803,-1.1794,-1.1772,-1.1761,-1.1737,-1.1721,-1.1706,-1.1684,-1.168,-1.1693,-1.1664,-1.1663,-1.1669,-1.1691,-1.1702,-1.1704,-1.168,-1.168,-1.168,-1.1692,0,-1.1973,-1.1951,-1.1922,-1.191,-1.1895,-1.1862,-1.1853,-1.1829,-1.1808,-1.1792,-1.1769,-1.1752,-1.1734,-1.1724,-1.1718,-1.1693,-1.1697,-1.1692,-1.1668,-1.1668,-1.1675,-1.1706,-1.1718,-1.1731,-1.1694,-1.1694,-1.1694,0,-1.1991,-1.1969,-1.1956,-1.1919,-1.1912,-1.1904,-1.1878,-1.1864,-1.1837,-1.1822,-1.1804,-1.178,-1.1767,-1.1751,-1.1731,-1.1728,-1.1717,-1.1703,-1.1703,-1.1698,-1.1681,-1.17,-1.1734,-1.1736,-1.1696,-1.1696,-1.1696,0,-1.2027,-1.1995,-1.1982,-1.197,-1.1928,-1.1922,-1.1905,-1.1877,-1.1863,-1.1841,-1.1832,-1.1809,-1.1796,-1.1778,-1.1749,-1.174,-1.1731,-1.1713,-1.1717,-1.1718,-1.1715,-1.1716,-1.1746,-1.1711,-1.1711,-1.1711,-1.1711,0,-1.205,-1.2042,-1.1998,-1.199,-1.198,-1.1947,-1.1938,-1.1917,-1.1893,-1.188,-1.1851,-1.1839,-1.1802,-1.1785,-1.1763,-1.1748,-1.1743,-1.173,-1.1724,-1.1732,-1.1733,-1.1722,-1.172,-1.1712,-1.1712,-1.1711,-1.1711,0,-1.2088,-1.2058,-1.2042,-1.2003,-1.1993,-1.1988,-1.1955,-1.1945,-1.1923,-1.1906,-1.1901,-1.1865,-1.1844,-1.1814,-1.1784,-1.1768,-1.1758,-1.1748,-1.1767,-1.1763,-1.1767,-1.1767,-1.1791,-1.1792,-1.1758,-1.1759,-1.1759,0,-1.2104,-1.2097,-1.2058,-1.2047,-1.203,-1.2013,-1.1999,-1.1966,-1.1953,-1.192,-1.1915,-1.1892,-1.1872,-1.184,-1.1811,-1.1788,-1.1777,-1.1787,-1.1774,-1.1781,-1.1775,-1.1775,-1.1774,-1.179,-1.1791,-1.1791,-1.1792,0,-1.2134,-1.2119,-1.21,-1.2076,-1.206,-1.2039,-1.2017,-1.2009,-1.1972,-1.1958,-1.1936,-1.1921,-1.189,-1.1867,-1.184,-1.1822,-1.18,-1.1796,-1.1796,-1.1803,-1.1813,-1.1806,-1.1774,-1.1796,-1.1795,-1.1795,-1.1795,-1.1794,-1.216,-1.2152,-1.2123,-1.2102,-1.2082,-1.2062,-1.205,-1.2026,-1.2007,-1.198,-1.1962,-1.1941,-1.1913,-1.1874,-1.1856,-1.1839,-1.183,-1.183,-1.1829,-1.1829,-1.1831,-1.1817,-1.1835,-1.1834,-1.1834,-1.1834,-1.1834,0,-1.2188,-1.2167,-1.2148,-1.2118,-1.2101,-1.2083,-1.2057,-1.2044,-1.2026,-1.2002,-1.1982,-1.1957,-1.1935,-1.1904,-1.1879,-1.1871,-1.1861,-1.1866,-1.1865,-1.1861,-1.1842,-1.1844,-1.1875,-1.1875,-1.1875,-1.1875,-1.1875,-1.1875,-1.22,-1.2184,-1.2166,-1.214,-1.212,-1.2099,-1.2085,-1.2066,-1.2046,-1.2019,-1.2001,-1.1981,-1.1954,-1.1927,-1.1905,-1.1896,-1.1888,-1.1896,-1.1884,-1.1866,-1.1863,-1.1859,-1.1861,-1.1895,-1.1895,-1.1905,-1.1905,-1.1905]},{"header":{"parameterUnit":"m.s-1","parameterCategory":1,"la1":30.2991,"la2":30.254,"lo1":-89.0895,"lo2":-89.0444,"dy":0.0017,"dx":0.0017,"nx":28,"ny":28,"refTime":"2025-02-03T09:00:00:Z","depth":0,"parameterNumber":3,"parameterNumberName":"V-component_of_WINDS"},"data":[0,0,0,0,0,0,0,0,0,0,0,0,0,0,0,0,0,0,0,0,0,0,0,0,0,0,0,0,0,0,0,0,0,0,0,0,0,0,0,0,0,0,0,0,0,0,0,0,0,0,0,0,0,0,0,0,0,0,2.0047,2.0047,0,2.0079,2.008,2.008,2.0092,2.0092,2.0092,2.0092,2.0122,2.0123,2.0124,0,0,0,0,0,0,0,0,0,0,0,0,0,1.9995,1.9995,2.0047,2.0047,2.0048,2.0079,2.008,2.008,2.0092,2.0092,2.0092,2.0091,2.0122,2.0123,2.0124,0,0,0,0,0,0,0,0,0,0,0,0,0,2.0021,1.9996,2.0047,2.0058,2.0059,2.0079,2.008,2.008,2.0092,2.0092,2.0092,2.0091,2.0122,2.0123,2.0124,2.0136,0,0,2.0128,2.0129,0,0,0,0,0,0,0,0,2.002,2.0023,2.0056,2.0057,2.0058,2.0082,2.0073,2.0099,2.0092,2.0079,2.0092,2.0091,2.0109,2.0111,2.0117,2.0137,2.0139,2.0129,2.0129,2.013,2.013,0,0,0,0,0,0,0,2.0018,2.0022,2.006,2.0056,2.0058,2.006,2.0064,2.0078,2.0094,2.008,2.0081,2.0085,2.0109,2.0116,2.0118,2.0139,2.0129,2.013,2.0131,2.0131,2.0173,2.0173,0,0,0,0,0,0,2.0014,2.002,2.0059,2.0061,2.0038,2.0061,2.0065,2.0074,2.0094,2.0097,2.0085,2.0085,2.0114,2.0117,2.0119,2.0136,2.013,2.0131,2.0132,2.0172,2.0173,2.0173,0,0,0,0,0,0,2.0013,2.0018,2.0057,2.0041,2.0046,2.0063,2.0072,2.0075,2.0082,2.0098,2.0101,2.0089,2.0114,2.0117,2.0132,2.0137,2.0132,2.0133,2.0172,2.0172,2.0173,2.0168,0,0,0,0,0,0,2.0012,2.0017,2.0022,2.0041,2.0047,2.007,2.0072,2.0076,2.0084,2.0085,2.0102,2.0105,2.0114,2.013,2.0134,2.0139,2.0134,2.0172,2.0172,2.0173,2.0168,2.0168,2.0169,0,0,0,0,0,2.001,2.0018,2.0022,2.0027,2.0053,2.007,2.0074,2.0085,2.0085,2.009,2.01,2.0104,2.0136,2.0132,2.0136,2.0141,2.0171,2.0172,2.0173,2.0168,2.0168,2.0169,0,0,0,0,0,0,1.9998,2.0021,2.0025,2.004,2.0054,2.0072,2.0079,2.0084,2.0097,2.0097,2.0109,2.0113,2.0128,2.0136,2.0131,2.0155,2.0154,2.0155,2.0149,2.015,2.015,2.0148,2.0135,0,0,0,0,0,1.9997,2.001,2.0029,2.004,2.0047,2.0062,2.007,2.0077,2.0091,2.0096,2.0108,2.0121,2.0134,2.0142,2.0155,2.0169,2.0174,2.0175,2.0175,2.0176,2.0177,2.0187,2.0188,2.0175,2.0175,2.0175,0,0,1.9996,2.001,2.0017,2.0039,2.005,2.0063,2.0066,2.0079,2.0089,2.0098,2.0114,2.0123,2.0138,2.0153,2.0161,2.0161,2.0182,2.0177,2.0177,2.0178,2.0188,2.0189,2.019,2.0175,2.0175,2.0175,0,0,2.0,2.0011,2.0023,2.0035,2.0052,2.0062,2.0065,2.0084,2.0091,2.0107,2.0114,2.0126,2.0147,2.0159,2.0167,2.0178,2.0183,2.0181,2.0183,2.0193,2.0194,2.0195,2.02,2.0202,2.0182,2.0182,2.0182,0,1.9995,2.0015,2.0028,2.0042,2.0051,2.0062,2.0074,2.0084,2.0104,2.0111,2.0111,2.014,2.0151,2.017,2.0173,2.0179,2.0183,2.018,2.0193,2.0194,2.0195,2.02,2.0202,2.0182,2.0182,2.0182,2.0182,0,2.001,2.0024,2.0031,2.0053,2.0063,2.0076,2.009,2.01,2.0107,2.0117,2.0134,2.0147,2.0164,2.0169,2.0175,2.0189,2.0189,2.0191,2.019,2.0196,2.0201,2.0203,2.0182,2.0182,2.0182,2.0182,0,0,2.0006,2.0036,2.0038,2.0049,2.007,2.0081,2.0095,2.0112,2.0121,2.0134,2.0147,2.0166,2.0169,2.0178,2.0186,2.0194,2.0204,2.0195,2.0196,2.0197,2.0222,2.0221,2.0223,2.0207,2.0207,2.0208,2.0221,0,2.0014,2.004,2.0052,2.0072,2.0086,2.0097,2.0109,2.0124,2.0134,2.0147,2.0158,2.0172,2.0174,2.018,2.0189,2.0201,2.0209,2.02,2.0219,2.0219,2.0215,2.0225,2.0224,2.0236,2.0223,2.0223,2.0224,0,2.0026,2.0042,2.0064,2.0085,2.0092,2.0102,2.012,2.0133,2.0149,2.0157,2.0169,2.0176,2.0192,2.019,2.0211,2.0205,2.0214,2.0221,2.0222,2.0224,2.0222,2.0229,2.024,2.0242,2.0226,2.0226,2.0226,0,2.0022,2.0049,2.0067,2.0075,2.01,2.0108,2.0118,2.0135,2.0146,2.0161,2.0168,2.0185,2.0194,2.0207,2.0219,2.0217,2.024,2.0239,2.0247,2.0247,2.0251,2.0251,2.0265,2.0255,2.0255,2.0255,2.0255,0,2.003,2.0043,2.0066,2.0076,2.0092,2.0107,2.0122,2.0133,2.0149,2.0162,2.0171,2.0184,2.0199,2.0213,2.0222,2.024,2.0243,2.025,2.0252,2.0249,2.0249,2.0256,2.0255,2.0256,2.0256,2.0256,2.0256,0,2.0029,2.0044,2.0064,2.0087,2.0093,2.0104,2.0124,2.0135,2.0146,2.0163,2.0168,2.0185,2.0203,2.0217,2.0238,2.0245,2.0264,2.0266,2.0258,2.026,2.0267,2.0267,2.0287,2.029,2.0277,2.0278,2.0278,0,2.0033,2.0044,2.0069,2.0079,2.009,2.0106,2.0118,2.0133,2.0144,2.0165,2.0174,2.0192,2.0208,2.0235,2.025,2.0267,2.027,2.0276,2.0273,2.0271,2.0272,2.0272,2.0273,2.0277,2.0277,2.0277,2.0277,0,2.0039,2.0047,2.0063,2.0083,2.0097,2.0113,2.0129,2.0136,2.0155,2.0167,2.0186,2.0198,2.0222,2.024,2.026,2.027,2.0277,2.0278,2.0281,2.0278,2.0274,2.0278,2.0261,2.0277,2.0277,2.0277,2.0277,2.0277,2.0041,2.0052,2.0072,2.0091,2.0105,2.0121,2.0133,2.0147,2.0163,2.0185,2.0192,2.0212,2.023,2.0257,2.0268,2.0284,2.0284,2.0288,2.0289,2.029,2.029,2.0271,2.0287,2.0287,2.0287,2.0287,2.0287,0,2.0049,2.0063,2.008,2.0103,2.0118,2.0125,2.0143,2.0155,2.0173,2.019,2.0206,2.0228,2.0247,2.0264,2.0283,2.0292,2.0296,2.0297,2.0297,2.0299,2.0288,2.0284,2.0294,2.0294,2.0294,2.0294,2.0294,2.0294,2.0054,2.0074,2.0085,2.0112,2.0126,2.0146,2.0157,2.0171,2.0185,2.021,2.0226,2.0238,2.0255,2.0276,2.0294,2.0298,2.0305,2.0306,2.0311,2.0301,2.03,2.0299,2.0296,2.0307,2.0307,2.0321,2.0321,2.0321]}]]